Flag for Sweden Weather past 2 weeks in Uppsala, Sweden

Now
48 °F

Clear.


Feels Like: 46 °F
Forecast: 45 / 62 °F
Wind: 5 mph from Northeast

Location: Stockholm / Arlanda

Current Time: Aug 30, 2014 at 11:09:46 PM

Latest Report: Aug 30, 2014 at 10:20 PM


Visibility: 10 mi

Pressure: 30.09 "Hg

Humidity: 94%

Dew point: 46 °F

Location of UppsalaLocation

Historic Weather in Uppsala — Graph

°F

Uppsala temperature yesterday

Maximum temperature yesterday: 64 °F (at 2:50 PM)
Minimum temperature yesterday: 45 °F (at 11:50 PM)
Average temperature yesterday: 57 °F

Past Weeks' High & Low Weather Summary

 TemperatureHumidityPressure
High70 °F (Aug 16, 1:20 PM)100% (Aug 16, 2:50 AM)30.09 "Hg (Aug 16, 2:50 AM)
Low39 °F (Aug 30, 4:20 AM)33% (Aug 16, 3:20 PM)29.27 "Hg (Aug 19, 1:20 AM)
Average57 °F80%29.65 "Hg
* Reported Aug 15 9:20 PM — Aug 30 9:50 PM, Uppsala, Weather by CustomWeather, © 2014

Note: Actual official high and low records may vary slightly from our data, if they occured in-between our weather recording intervals... More about our weather records

Advertising

Uppsala weather history for previous 24 hours

 ConditionsComfort  
Time TempWeatherWind HumidityBarometerVisibility
9:50 PM
Aug 30
50 °FClear.3 mph88%30.09 "Hg10 mi
9:20 PM52 °FClear.3 mph88%30.09 "Hg10 mi
8:50 PM55 °FSunny.5 mph72%30.09 "Hg10 mi
8:20 PM57 °FSunny.6 mph67%30.07 "Hg10 mi
7:20 PM57 °FSunny.5 mph63%30.07 "Hg10 mi
6:50 PM59 °FPartly sunny.6 mph59%30.07 "HgN/A
6:20 PM59 °FScattered clouds.6 mph63%30.07 "HgN/A
5:50 PM59 °FScattered clouds.8 mph68%30.07 "HgN/A
5:20 PM61 °FPartly sunny.6 mph68%30.07 "HgN/A
4:50 PM61 °FBroken clouds.8 mph68%30.07 "HgN/A
4:20 PM61 °FBroken clouds.7 mph68%30.07 "HgN/A
3:50 PM61 °FBroken clouds.8 mph68%30.07 "HgN/A
3:20 PM63 °FSunny.8 mph64%30.07 "Hg10 mi
2:50 PM61 °FPartly sunny.9 mph63%30.07 "HgN/A
2:20 PM59 °FBroken clouds.7 mph82%30.07 "HgN/A
1:50 PM59 °FPartly sunny.7 mph77%30.07 "HgN/A
1:20 PM59 °FPartly sunny.9 mph77%30.07 "HgN/A
12:50 PM61 °FScattered showers. Partly sunny.7 mph72%30.07 "HgN/A
12:20 PM61 °FScattered showers. Broken clouds.6 mph77%30.07 "HgN/A
11:50 AM61 °FPartly sunny.8 mph72%30.07 "HgN/A
11:20 AM59 °FBroken clouds.6 mph77%30.07 "HgN/A
10:50 AM57 °FBroken clouds.7 mph88%30.07 "HgN/A
10:20 AM57 °FPartly sunny.7 mph88%30.07 "HgN/A
9:50 AM55 °FPartly sunny.7 mph94%30.07 "HgN/A
9:20 AM54 °FLow clouds.6 mph100%30.04 "HgN/A
8:50 AM52 °FPartly sunny.7 mph100%30.04 "HgN/A
8:20 AM52 °FPartly sunny.5 mph100%30.04 "HgN/A
7:50 AM50 °FBroken clouds.5 mph100%30.04 "HgN/A
7:20 AM48 °FBroken clouds.6 mph100%30.04 "Hg3 mi
6:50 AM46 °FFog.6 mph100%30.04 "Hg0 mi
6:20 AM45 °FFog.6 mph100%30.04 "Hg0 mi
5:50 AM43 °FFog.3 mph100%30.04 "Hg0 mi
5:20 AM41 °FPassing clouds.3 mph100%30.04 "Hg1 mi
4:50 AM39 °FLight fog.3 mph100%30.01 "Hg1 mi
4:20 AM39 °FLight fog.3 mph100%30.01 "Hg0 mi
3:50 AM41 °FLight fog.3 mph100%30.04 "Hg0 mi
3:20 AM43 °FLight fog.3 mph93%30.01 "Hg0 mi
2:50 AM43 °FLight fog.3 mph100%30.01 "Hg2 mi
2:20 AM43 °FLight fog.3 mph93%30.01 "Hg5 mi
1:50 AM43 °FClear.3 mph100%30.01 "Hg10 mi
1:20 AM45 °FClear.3 mph93%30.01 "Hg10 mi
12:50 AM43 °FClear.5 mph100%30.01 "Hg10 mi
12:20 AM45 °FClear.3 mph100%30.01 "Hg10 mi
11:50 PM
Aug 29
45 °FClear.5 mph100%30.01 "Hg10 mi
11:20 PM46 °FClear.6 mph93%30.01 "Hg10 mi
Weather by CustomWeather, © 2014

See weather overviewHow to use our weather pages